Погода в Ардебиле

Иран     38°14′58″N   48°17′23″E
В апреле 2022 года жителям России запретили посещать сайт meteo.paraplan.net по решению Генеральной прокуратуры. Аудитория сайта уменьшилась в 10 раз. Владельцы сайта не видят смысла в поддержке погодного сервера в таких условиях. Сайт будет закрыт в октябре.
темп.,
°C
ветер,
м/с
пор.,
м/с
влажн.,
%
обл.,
%
осадки,
мм/ч
давл.,
гПа
погр.,
м
25 сентября, вс
вс2500:30+17св22450 0.0 101287
03:30+14св478997 0.0 1015531
06:30+12св4694100 0.1 1018421
09:30+12св4592100 0.1 1020452
12:30+12св4584100 0.1 1021584
15:30+12всв457395 0.1 1021469
18:30+10св358796 0.0 1023402
21:30+10св3593100 0.0 1024437
26 сентября, пн
пн2600:30+10ссв2495100 0.1 1023383
03:30+11ссв2393100 0.3 1023322
06:30+11св2493100 0.3 1023496
09:30+12всв2493100 0.4 1023425
12:30+12всв339095 0.1 1021399
15:30+14всв438381 0.1 1020514
18:30+12всв2392100 0.1 1021400
21:30+13в118594 0.1 1021355
27 сентября, вт
вт2700:30+13св008224 0.0 1019175
03:30+12ююв00880 0.0 101863
06:30+11в11890 0.0 101853
09:30+15в21700 0.0 1017438
12:30+20всв32520 0.0 1014611
15:30+22в43500 0.0 1011438
18:30+17св12680 0.0 101386
21:30+16с00720 0.0 101324
28 сентября, ср
ср2800:30+16зюз11690 0.0 101211
03:30+15ссв11670 0.0 101111
06:30+15ю11560 0.0 101111
09:30+24ююз26250 0.0 1009656
12:30+30ююз77120 0.0 10052758
15:30+30юз35120 0.0 10032637
18:30+24ююз36190 0.0 1005104
21:30+21зюз22240 0.0 100718
29 сентября, чт
чт2900:30+19ююз34210 0.0 100761
03:30+18юз33235 0.0 100852
06:30+16ююз23232 0.0 100848
09:30+23в111542 0.0 1008492
12:30+25в66250 0.0 1006858
15:30+21всв65472 0.0 1007500
18:30+14св36703 0.0 1011341
21:30+13св136620 0.0 1014235